Location: Ku?niki
(51.4449°N, 17.8974°E)
Time: 14:29:00
(UTC+00:00)

Cosmos 1655 Rocket - Pass Details

Date: 18 September 2020
Orbit: 971 x 1006 km, 82.9° (Epoch: 21 October)

Event Time Altitude Azimuth Distance (km) Brightness Sun altitude
Rises 19:18:05 0° 352° (N) 3,685 7.6 -21.8°
Reaches altitude 10° 19:20:45 10° 359° (N) 2,736 6.8 -22.2°
Maximum altitude 19:26:43 44° 71° (ENE) 1,329 4.4 -22.9°
Enters shadow 19:27:35 42° 93° (E) 1,375 4.4 -23.1°
